#�ϑ�����,���ϕ���,���ϕ���,�ő啗��,�ő啗����������,�ő�u�ԕ���,�ő�u�ԕ�����������
#(�N����),(m/s)   ,(16����),(m/s)   ,(16����)        ,(m/s)       ,(16����)            
2012/3/10 0:01,1.1,2,1.2,16,1.9,6
2012/3/10 0:02,0.9,3,1,16,3,8
2012/3/10 0:03,0.9,3,0.9,16,1.4,10
2012/3/10 0:04,0.9,3,0.9,16,2.7,8
2012/3/10 0:05,1,4,1,16,3,6
2012/3/10 0:06,1.3,4,1.3,16,5.1,3
2012/3/10 0:07,1.7,4,1.7,4,5.4,3
2012/3/10 0:08,1.9,4,1.9,4,4.4,2
2012/3/10 0:09,1.9,4,1.9,4,3.6,2
2012/3/10 0:10,1.9,3,1.9,4,2.7,1
2012/3/10 0:11,1.8,2,1.9,4,2.4,16
2012/3/10 0:12,1.7,2,1.8,4,1.3,14
2012/3/10 0:13,1.8,1,1.8,4,1.3,13
2012/3/10 0:14,1.8,1,1.8,4,2.2,15
2012/3/10 0:15,1.8,16,1.8,4,2.6,15
2012/3/10 0:16,1.6,16,1.8,4,2.2,15
2012/3/10 0:17,1.3,15,1.5,4,0.5,13
2012/3/10 0:18,1,14,1.2,4,0.5,8
2012/3/10 0:19,0.9,14,1,4,0.9,13
2012/3/10 0:20,0.8,14,0.9,3,0.6,13
2012/3/10 0:21,0.8,13,0.8,2,1.1,3
2012/3/10 0:22,0.9,14,0.9,2,2.6,4
2012/3/10 0:23,1,13,1,1,2.9,8
2012/3/10 0:24,0.8,11,1,1,1.1,10
2012/3/10 0:25,0.7,10,0.8,16,1.1,9
2012/3/10 0:26,0.6,9,0.7,16,0.3,15
2012/3/10 0:27,0.6,9,0.6,15,0.1,9
2012/3/10 0:28,0.6,9,0.6,14,0,10
2012/3/10 0:29,0.8,8,0.8,13,4.9,3
2012/3/10 0:30,1.1,7,1.1,7,5.1,4
2012/3/10 0:31,1.3,7,1.3,7,4.3,5
2012/3/10 0:32,1.3,7,1.3,7,2.5,3
2012/3/10 0:33,1.2,6,1.3,7,1.4,5
2012/3/10 0:34,1.2,6,1.2,7,2.4,5
2012/3/10 0:35,1.3,5,1.3,7,1.8,5
2012/3/10 0:36,1.3,5,1.3,7,2.4,9
2012/3/10 0:37,1.5,5,1.5,5,4.5,8
2012/3/10 0:38,1.6,5,1.6,5,2,9
2012/3/10 0:39,1.5,6,1.7,5,3.1,9
2012/3/10 0:40,1.4,7,1.5,5,2.4,11
2012/3/10 0:41,1.1,8,1.3,5,1,13
2012/3/10 0:42,1.1,9,1.1,5,1.3,12
2012/3/10 0:43,1.1,9,1.1,5,2.6,8
2012/3/10 0:44,1.1,10,1.1,5,2.7,8
2012/3/10 0:45,1.2,10,1.2,5,2.9,9
2012/3/10 0:46,1.3,10,1.3,5,2.9,10
2012/3/10 0:47,1.2,10,1.3,5,2.5,9
2012/3/10 0:48,1.3,10,1.3,5,2.2,9
2012/3/10 0:49,1.2,10,1.3,6,1.5,9
2012/3/10 0:50,1.1,9,1.2,7,2,9
2012/3/10 0:51,1.1,9,1.1,10,2,1
2012/3/10 0:52,1.1,9,1.1,10,1.9,16
2012/3/10 0:53,1.1,10,1.1,10,0.9,13
2012/3/10 0:54,1,11,1.1,10,0.8,13
2012/3/10 0:55,0.9,12,1,10,1.6,16
2012/3/10 0:56,0.8,13,0.9,10,1.8,16
2012/3/10 0:57,0.8,14,0.8,10,2.9,3
2012/3/10 0:58,1,15,1,10,4.4,2
2012/3/10 0:59,1,16,1,10,2,15
2012/3/10 1:00,0.9,16,1,9,0.8,14
2012/3/10 1:01,1,15,1,9,2.2,16
2012/3/10 1:02,1.1,16,1.1,9,5.5,1
2012/3/10 1:03,1.3,16,1.3,16,5.4,1
2012/3/10 1:04,1.6,1,1.6,1,4.3,3
2012/3/10 1:05,1.9,1,1.9,1,6,3
2012/3/10 1:06,2.3,2,2.3,2,7.4,2
2012/3/10 1:07,2.4,2,2.4,2,4.5,1
2012/3/10 1:08,2.3,2,2.4,2,2.7,3
2012/3/10 1:09,2.6,2,2.6,2,7.2,2
2012/3/10 1:10,2.9,2,2.9,2,5.6,2
2012/3/10 1:11,3.1,2,3.1,2,5,2
2012/3/10 1:12,3,3,3.1,2,1.8,9
2012/3/10 1:13,2.8,3,3,2,2.5,8
2012/3/10 1:14,2.6,4,2.8,2,2.1,7
2012/3/10 1:15,2.4,4,2.6,2,2.9,5
2012/3/10 1:16,2.2,4,2.4,2,3,6
2012/3/10 1:17,2,5,2.1,2,1.4,7
2012/3/10 1:18,2,6,2,2,2.9,9
2012/3/10 1:19,1.8,6,2,2,3.1,8
2012/3/10 1:20,1.5,7,1.8,2,2,6
2012/3/10 1:21,1.4,7,1.5,2,2.4,8
2012/3/10 1:22,1.4,7,1.4,3,3.3,9
2012/3/10 1:23,1.4,7,1.4,3,1.5,16
2012/3/10 1:24,1.3,7,1.4,4,1.8,7
2012/3/10 1:25,1.2,7,1.3,4,2,8
2012/3/10 1:26,1.2,7,1.2,5,2.4,6
2012/3/10 1:27,1.3,7,1.3,5,2.9,8
2012/3/10 1:28,1.4,7,1.4,6,3.6,7
2012/3/10 1:29,1.3,6,1.4,6,2.6,7
2012/3/10 1:30,1.2,6,1.3,7,2,4
2012/3/10 1:31,1.2,6,1.2,7,1.5,4
2012/3/10 1:32,1.2,6,1.2,7,2,4
2012/3/10 1:33,1.2,6,1.2,7,1.6,8
2012/3/10 1:34,1.2,6,1.2,7,1,8
2012/3/10 1:35,1.2,6,1.2,7,2,9
2012/3/10 1:36,1.2,7,1.2,7,3.2,8
2012/3/10 1:37,1.2,7,1.2,7,2.5,8
2012/3/10 1:38,1,7,1.2,7,1.6,8
2012/3/10 1:39,0.9,7,1,6,0.5,10
2012/3/10 1:40,0.8,8,0.9,6,0.1,9
2012/3/10 1:41,0.8,8,0.8,6,0.6,10
2012/3/10 1:42,0.7,8,0.8,6,0.5,1
2012/3/10 1:43,0.6,8,0.7,6,0.8,3
2012/3/10 1:44,0.7,8,0.7,6,2.2,2
2012/3/10 1:45,0.9,8,0.9,6,4.2,5
2012/3/10 1:46,1,7,1,7,5.5,3
2012/3/10 1:47,0.9,5,1,7,2.9,3
2012/3/10 1:48,1,4,1,7,3.1,4
2012/3/10 1:49,1,4,1,7,1.3,4
2012/3/10 1:50,1.1,3,1.1,3,1.3,12
2012/3/10 1:51,1.2,3,1.2,3,3.5,8
2012/3/10 1:52,1.4,5,1.4,4,2.7,8
2012/3/10 1:53,1.6,6,1.6,5,3,8
2012/3/10 1:54,1.7,7,1.7,7,3.1,8
2012/3/10 1:55,1.7,7,1.8,7,3.7,7
2012/3/10 1:56,1.8,8,1.8,7,4.9,8
2012/3/10 1:57,1.7,8,1.8,7,1.9,7
2012/3/10 1:58,1.8,8,1.8,7,3.7,5
2012/3/10 1:59,2.1,8,2.1,8,4.1,6
2012/3/10 2:00,2.3,7,2.3,7,3.5,6
2012/3/10 2:01,2.5,7,2.5,7,7.1,3
2012/3/10 2:02,2.6,7,2.6,7,6.2,3
2012/3/10 2:03,2.9,6,2.9,6,7.7,2
2012/3/10 2:04,3.1,5,3.1,5,6.2,1
2012/3/10 2:05,3.1,5,3.2,5,4.5,5
2012/3/10 2:06,2.9,5,3.1,5,1.3,7
2012/3/10 2:07,3,4,3,5,3.8,5
2012/3/10 2:08,2.9,4,3,5,5.2,8
2012/3/10 2:09,2.8,4,2.9,5,5.2,9
2012/3/10 2:10,2.9,5,2.9,5,3.9,7
2012/3/10 2:11,2.6,5,2.9,5,2.4,6
2012/3/10 2:12,2.5,6,2.6,5,3.3,8
2012/3/10 2:13,2.2,7,2.5,5,3.8,9
2012/3/10 2:14,2.1,8,2.2,5,5.5,9
2012/3/10 2:15,1.9,8,2.1,5,2,10
2012/3/10 2:16,2.1,8,2.1,5,4.9,9
2012/3/10 2:17,2.1,8,2.1,4,4.7,3
2012/3/10 2:18,2,9,2.1,4,4.8,10
2012/3/10 2:19,2,9,2.1,4,3.9,8
2012/3/10 2:20,1.8,9,2,5,4.2,10
2012/3/10 2:21,1.8,9,1.8,6,3.6,9
2012/3/10 2:22,1.8,10,1.8,6,3.2,10
2012/3/10 2:23,2,10,2,7,5.2,9
2012/3/10 2:24,1.8,10,2,8,3.2,13
2012/3/10 2:25,2,10,2,8,5,11
2012/3/10 2:26,2.1,11,2.1,8,6.7,12
2012/3/10 2:27,2.1,11,2.2,10,4.4,15
2012/3/10 2:28,2.2,11,2.2,10,5.8,16
2012/3/10 2:29,2.4,12,2.4,12,5.8,16
2012/3/10 2:30,2.5,13,2.5,12,5.8,3
2012/3/10 2:31,2.6,14,2.6,13,3.3,3
2012/3/10 2:32,2.7,16,2.7,16,4.9,16
2012/3/10 2:33,2.5,16,2.6,16,4.2,16
2012/3/10 2:34,2.5,1,2.6,16,3.9,15
2012/3/10 2:35,2.4,1,2.4,16,3.6,1
2012/3/10 2:36,2.2,1,2.3,16,5.1,1
2012/3/10 2:37,2.2,1,2.2,16,3.6,4
2012/3/10 2:38,2.1,2,2.2,16,4.4,2
2012/3/10 2:39,2.3,2,2.3,16,8.7,16
2012/3/10 2:40,2.6,2,2.6,16,10.3,16
2012/3/10 2:41,3,1,3,2,8.3,2
2012/3/10 2:42,3.2,1,3.2,1,8.6,1
2012/3/10 2:43,3.3,2,3.3,1,4.9,16
2012/3/10 2:44,3.4,2,3.4,2,5.1,3
2012/3/10 2:45,3.7,2,3.7,2,6.8,4
2012/3/10 2:46,3.9,2,3.9,2,6.4,16
2012/3/10 2:47,3.9,2,3.9,2,4.5,1
2012/3/10 2:48,4,2,4,2,4.5,1
2012/3/10 2:49,3.9,2,4,2,10,2
2012/3/10 2:50,3.7,2,3.9,2,7.5,2
2012/3/10 2:51,3.3,2,3.6,2,5.6,3
2012/3/10 2:52,3,2,3.3,2,4.2,6
2012/3/10 2:53,2.9,2,3,2,3.1,16
2012/3/10 2:54,2.7,2,2.9,2,2.7,1
2012/3/10 2:55,2.4,2,2.7,2,1.9,13
2012/3/10 2:56,2.3,2,2.3,2,3.9,6
2012/3/10 2:57,2.2,3,2.3,2,3.7,6
2012/3/10 2:58,2,3,2.2,2,0.9,3
2012/3/10 2:59,1.7,3,2,2,0.8,9
2012/3/10 3:00,1.4,3,1.6,2,3.1,3
2012/3/10 3:01,1.5,3,1.5,2,6.4,3
2012/3/10 3:02,1.8,3,1.8,2,6.3,5
2012/3/10 3:03,2,4,2,2,6.3,5
2012/3/10 3:04,2.2,4,2.2,2,6.3,3
2012/3/10 3:05,2.3,5,2.3,2,3.8,4
2012/3/10 3:06,2.5,4,2.5,4,7.8,2
2012/3/10 3:07,2.7,3,2.7,3,7.8,2
2012/3/10 3:08,2.9,3,2.9,3,5.4,15
2012/3/10 3:09,3.3,3,3.3,3,8.5,2
2012/3/10 3:10,3.5,3,3.5,3,7.4,2
2012/3/10 3:11,3.7,3,3.7,3,7.9,1
2012/3/10 3:12,3.7,3,3.7,3,7.8,1
2012/3/10 3:13,3.8,2,3.9,2,7.9,3
2012/3/10 3:14,3.8,2,3.9,2,6.3,1
2012/3/10 3:15,3.9,2,3.9,2,4.5,3
2012/3/10 3:16,3.5,2,3.9,2,3,4
2012/3/10 3:17,3.2,2,3.5,2,1.4,8
2012/3/10 3:18,3.1,3,3.2,2,3.1,6
2012/3/10 3:19,3.1,3,3.2,2,7,2
2012/3/10 3:20,3,3,3.1,2,5.2,16
2012/3/10 3:21,2.7,3,3,2,3,4
2012/3/10 3:22,2.4,4,2.7,2,3.2,7
2012/3/10 3:23,2.1,5,2.3,2,4.3,8
2012/3/10 3:24,1.9,5,2.1,2,3.8,16
2012/3/10 3:25,1.9,6,2,2,4.7,16
2012/3/10 3:26,2,5,2,2,4.3,14
2012/3/10 3:27,2.1,4,2.1,2,4.2,3
2012/3/10 3:28,2.2,3,2.2,3,4.9,1
2012/3/10 3:29,2.3,3,2.3,3,7.9,1
2012/3/10 3:30,2.4,3,2.4,3,6.4,3
2012/3/10 3:31,2.6,3,2.6,3,6.7,2
2012/3/10 3:32,2.8,3,2.8,3,5.8,4
2012/3/10 3:33,2.9,2,2.9,2,7.5,1
2012/3/10 3:34,3.1,2,3.1,2,5.6,3
2012/3/10 3:35,3,2,3.1,2,3.1,15
2012/3/10 3:36,3,2,3,2,2.9,14
2012/3/10 3:37,3,2,3.1,2,5.8,16
2012/3/10 3:38,2.9,2,3,2,2.7,1
2012/3/10 3:39,2.5,2,2.8,2,3.6,15
2012/3/10 3:40,2.5,1,2.5,2,6.2,1
2012/3/10 3:41,2.5,1,2.5,2,7.2,16
2012/3/10 3:42,2.6,1,2.6,2,6.3,1
2012/3/10 3:43,2.6,1,2.7,2,7.4,16
2012/3/10 3:44,2.7,1,2.7,2,8.3,16
2012/3/10 3:45,3,1,3,2,7,16
2012/3/10 3:46,3.3,1,3.3,1,7.8,2
2012/3/10 3:47,3.5,1,3.5,1,9.5,16
2012/3/10 3:48,3.8,1,3.8,1,6.7,16
2012/3/10 3:49,3.9,1,3.9,1,5.7,3
2012/3/10 3:50,3.8,1,3.9,1,5.6,1
2012/3/10 3:51,4.1,1,4.1,1,11.9,16
2012/3/10 3:52,4.1,1,4.2,1,7,16
2012/3/10 3:53,4,1,4.1,1,8.6,15
2012/3/10 3:54,3.8,1,4,1,6.7,16
2012/3/10 3:55,3.6,1,3.8,1,5.5,1
2012/3/10 3:56,3.6,1,3.7,1,7.5,1
2012/3/10 3:57,3.8,16,3.8,1,11.4,16
2012/3/10 3:58,4,16,4,1,10.1,16
2012/3/10 3:59,4.2,16,4.2,1,10,16
2012/3/10 4:00,4.5,1,4.5,1,8.6,2
2012/3/10 4:01,4.3,1,4.5,1,7.8,1
2012/3/10 4:02,4.3,1,4.3,1,7.6,16
2012/3/10 4:03,4.5,1,4.5,1,13.3,1
2012/3/10 4:04,5,1,5,1,13.5,1
2012/3/10 4:05,5.5,1,5.5,1,10.6,2
2012/3/10 4:06,5.7,1,5.7,1,12.8,2
2012/3/10 4:07,5.4,1,5.6,1,10,1
2012/3/10 4:08,5.3,1,5.4,1,8.6,16
2012/3/10 4:09,5,1,5.2,1,4.4,16
2012/3/10 4:10,4.5,1,5,1,3.6,16
2012/3/10 4:11,4.4,1,4.5,1,4.3,2
2012/3/10 4:12,4.3,1,4.4,1,9.4,1
2012/3/10 4:13,4.4,1,4.5,1,8.1,2
2012/3/10 4:14,4,1,4.3,1,6.2,1
2012/3/10 4:15,3.7,1,3.9,1,8.4,16
2012/3/10 4:16,3.6,1,3.7,1,7.5,16
2012/3/10 4:17,3.3,16,3.5,1,5.7,1
2012/3/10 4:18,3.3,16,3.3,1,8.3,16
2012/3/10 4:19,3.7,16,3.7,1,14,16
2012/3/10 4:20,4,16,4,1,10.9,16
2012/3/10 4:21,4.3,1,4.3,1,9.9,2
2012/3/10 4:22,4.2,1,4.4,1,7.8,1
2012/3/10 4:23,3.9,16,4.2,1,5.7,13
2012/3/10 4:24,4,16,4,1,8.4,14
2012/3/10 4:25,4.3,16,4.3,1,10.3,15
2012/3/10 4:26,4.4,1,4.5,16,10.5,1
2012/3/10 4:27,4.4,1,4.5,16,7.4,2
2012/3/10 4:28,4.3,1,4.5,16,5,1
2012/3/10 4:29,3.9,1,4.3,16,5.5,16
2012/3/10 4:30,3.9,1,3.9,16,7.1,2
2012/3/10 4:31,3.8,1,3.9,16,7.2,15
2012/3/10 4:32,3.8,1,3.9,16,9.2,16
2012/3/10 4:33,4.1,1,4.1,16,6.9,1
2012/3/10 4:34,3.9,1,4.1,16,7,16
2012/3/10 4:35,3.6,1,3.9,16,5.4,16
2012/3/10 4:36,3.3,1,3.6,1,3,15
2012/3/10 4:37,3.4,16,3.4,1,11.1,16
2012/3/10 4:38,3.8,16,3.8,1,9.5,1
2012/3/10 4:39,3.9,16,3.9,1,6.2,1
2012/3/10 4:40,3.6,16,3.9,1,3.2,4
2012/3/10 4:41,3.3,1,3.6,1,5.7,15
2012/3/10 4:42,3.4,1,3.4,1,7.9,14
2012/3/10 4:43,3.1,1,3.4,1,3.8,16
2012/3/10 4:44,3.1,1,3.2,1,6,4
2012/3/10 4:45,3,1,3.1,16,4.4,6
2012/3/10 4:46,3,2,3,16,3,6
2012/3/10 4:47,2.7,3,2.9,16,4.5,4
2012/3/10 4:48,2.2,3,2.6,16,3.7,5
2012/3/10 4:49,2.1,3,2.2,16,4.9,14
2012/3/10 4:50,2.2,3,2.2,16,3.3,13
2012/3/10 4:51,2.2,1,2.3,1,3.8,13
2012/3/10 4:52,2.2,16,2.2,1,7.1,16
2012/3/10 4:53,2.4,16,2.4,1,10.2,16
2012/3/10 4:54,2.4,16,2.5,1,6.4,2
2012/3/10 4:55,2.6,16,2.6,1,7.5,15
2012/3/10 4:56,3.3,16,3.3,16,14.3,16
2012/3/10 4:57,3.5,15,3.5,16,10.7,16
2012/3/10 4:58,3.4,15,3.5,16,2.5,14
2012/3/10 4:59,3.4,16,3.4,16,6.5,2
2012/3/10 5:00,3.7,16,3.7,16,12.2,16
2012/3/10 5:01,4.1,16,4.1,16,11.5,16
2012/3/10 5:02,4.1,1,4.2,16,7.7,1
2012/3/10 5:03,4,1,4.1,16,6.8,1
2012/3/10 5:04,3.9,1,4,16,5.7,16
2012/3/10 5:05,4,1,4,16,6.3,15
2012/3/10 5:06,3.6,1,3.9,16,10.6,16
2012/3/10 5:07,3.8,1,3.8,16,8.5,1
2012/3/10 5:08,3.9,1,3.9,16,10.8,15
2012/3/10 5:09,4.3,1,4.3,1,11.9,16
2012/3/10 5:10,4.7,1,4.8,1,13.9,16
2012/3/10 5:11,4.6,1,4.7,1,10.6,16
2012/3/10 5:12,4.7,16,4.7,1,12.4,1
2012/3/10 5:13,4.9,16,4.9,16,8.1,1
2012/3/10 5:14,5.3,16,5.3,16,12.1,16
2012/3/10 5:15,5.6,16,5.6,16,11.4,16
2012/3/10 5:16,6,16,6,16,14.8,16
2012/3/10 5:17,6.2,16,6.2,16,14.2,16
2012/3/10 5:18,6.4,16,6.4,16,8.9,1
2012/3/10 5:19,6.6,16,6.6,16,13,16
2012/3/10 5:20,6.5,16,6.6,16,13.6,1
2012/3/10 5:21,6.7,16,6.7,16,14.5,16
2012/3/10 5:22,7,16,7,16,13,16
2012/3/10 5:23,7.4,16,7.4,16,13.3,16
2012/3/10 5:24,7.4,16,7.5,16,12.5,16
2012/3/10 5:25,7.1,16,7.3,16,9.2,1
2012/3/10 5:26,6.9,16,7,16,13,16
2012/3/10 5:27,6.8,16,6.9,16,10.7,16
2012/3/10 5:28,6.9,16,6.9,16,10.9,16
2012/3/10 5:29,6.9,16,6.9,16,11.7,15
2012/3/10 5:30,6.8,16,6.9,16,15.8,1
2012/3/10 5:31,6.8,16,6.9,16,9.9,1
2012/3/10 5:32,6.6,16,6.8,16,12.6,16
2012/3/10 5:33,6.9,16,6.9,16,15.2,16
2012/3/10 5:34,6.9,16,7,16,12.3,16
2012/3/10 5:35,7.1,16,7.2,16,13.5,2
2012/3/10 5:36,7.1,16,7.2,16,10.8,16
2012/3/10 5:37,6.9,16,7,16,10.3,2
2012/3/10 5:38,6.9,16,7,16,9.8,1
2012/3/10 5:39,7.1,16,7.1,16,14.3,16
2012/3/10 5:40,7,16,7.1,16,14,1
2012/3/10 5:41,6.9,16,7,16,10,1
2012/3/10 5:42,7.2,16,7.2,16,17.1,16
2012/3/10 5:43,6.8,16,7.3,16,15,16
2012/3/10 5:44,6.7,16,6.8,16,11.4,16
2012/3/10 5:45,6.8,16,6.8,16,13.8,16
2012/3/10 5:46,6.9,16,6.9,16,11,15
2012/3/10 5:47,6.9,16,6.9,16,10.1,15
2012/3/10 5:48,7,16,7,16,13.2,15
2012/3/10 5:49,6.8,16,7,16,11.8,1
2012/3/10 5:50,6.7,16,6.8,16,13.2,16
2012/3/10 5:51,7,16,7,16,17,16
2012/3/10 5:52,6.8,16,7,16,12.6,1
2012/3/10 5:53,6.6,16,6.7,16,10.9,16
2012/3/10 5:54,6.5,1,6.7,16,10.2,2
2012/3/10 5:55,6.2,1,6.4,16,7.1,2
2012/3/10 5:56,6.2,1,6.3,16,11.1,15
2012/3/10 5:57,6.5,1,6.5,16,15.1,1
2012/3/10 5:58,6.6,1,6.7,16,15.2,15
2012/3/10 5:59,6.6,1,6.6,16,15.3,16
2012/3/10 6:00,6.5,1,6.6,16,13.1,15
2012/3/10 6:01,6.4,1,6.5,16,15.8,16
2012/3/10 6:02,6.5,16,6.5,16,14.9,16
2012/3/10 6:03,6.8,16,6.8,16,14,16
2012/3/10 6:04,7.1,16,7.1,16,14,16
2012/3/10 6:05,7.2,16,7.2,16,9.1,16
2012/3/10 6:06,7.2,16,7.3,16,11.9,2
2012/3/10 6:07,6.9,1,7.2,16,8.2,1
2012/3/10 6:08,6.8,1,6.8,16,12.3,16
2012/3/10 6:09,6.7,1,6.8,16,8.5,14
2012/3/10 6:10,6.7,1,6.7,16,15,1
2012/3/10 6:11,6.6,1,6.8,16,13.3,1
2012/3/10 6:12,6.6,1,6.7,16,13.6,16
2012/3/10 6:13,6.4,1,6.7,16,13,2
2012/3/10 6:14,6.2,1,6.4,16,8.3,1
2012/3/10 6:15,6.5,1,6.5,16,13.3,15
2012/3/10 6:16,6.2,1,6.4,16,11.8,1
2012/3/10 6:17,6.1,1,6.2,1,9.4,1
2012/3/10 6:18,6,1,6.3,1,11,16
2012/3/10 6:19,6,1,6,1,9.2,2
2012/3/10 6:20,5.8,1,6,1,9.7,1
2012/3/10 6:21,5.5,1,5.8,1,7.6,2
2012/3/10 6:22,5.3,1,5.5,1,11.6,16
2012/3/10 6:23,5.1,1,5.2,1,10.6,16
2012/3/10 6:24,5,1,5.1,1,8.2,14
2012/3/10 6:25,4.7,1,5,1,7,1
2012/3/10 6:26,4.7,1,4.7,1,9.9,16
2012/3/10 6:27,5.2,1,5.2,1,13.3,14
2012/3/10 6:28,5.1,16,5.2,1,12.3,15
2012/3/10 6:29,5.2,16,5.3,1,12.5,1
2012/3/10 6:30,5.3,16,5.4,1,11.1,15
2012/3/10 6:31,5.6,16,5.6,16,9.2,15
2012/3/10 6:32,5.5,16,5.6,16,10.9,1
2012/3/10 6:33,5.4,16,5.5,16,10,2
2012/3/10 6:34,5.4,16,5.5,16,8.7,15
2012/3/10 6:35,5.4,16,5.4,16,8.7,16
2012/3/10 6:36,5.2,16,5.4,16,8.9,15
2012/3/10 6:37,4.7,16,5.2,16,8.1,15
2012/3/10 6:38,4.6,16,4.7,16,10.5,1
2012/3/10 6:39,4.7,1,4.8,16,11.6,2
2012/3/10 6:40,4.7,1,4.7,16,10,2
2012/3/10 6:41,4.6,1,4.7,16,7.9,15
2012/3/10 6:42,4.4,1,4.6,16,8.7,1
2012/3/10 6:43,4.2,1,4.4,16,6.3,15
2012/3/10 6:44,4.1,1,4.2,16,6.3,15
2012/3/10 6:45,4.1,1,4.2,16,8.6,16
2012/3/10 6:46,3.9,1,4.1,16,5.2,2
2012/3/10 6:47,4,1,4,16,6.3,2
2012/3/10 6:48,3.8,1,4,16,5,16
2012/3/10 6:49,3.4,1,3.7,1,6.7,16
2012/3/10 6:50,3.2,1,3.4,1,7.9,16
2012/3/10 6:51,3.1,1,3.2,1,6,1
2012/3/10 6:52,3.2,1,3.2,1,6.5,1
2012/3/10 6:53,3.2,1,3.2,1,6.8,15
2012/3/10 6:54,3.6,16,3.6,1,12.3,14
2012/3/10 6:55,3.8,1,3.8,1,13.1,16
2012/3/10 6:56,3.9,1,3.9,1,7.7,2
2012/3/10 6:57,4,16,4,1,7,1
2012/3/10 6:58,4,16,4,16,5.7,16
2012/3/10 6:59,3.9,1,4,16,4.5,2
2012/3/10 7:00,3.6,1,3.9,16,6.2,2
2012/3/10 7:01,3.7,1,3.7,16,7.5,1
2012/3/10 7:02,3.7,1,3.7,16,6.1,2
2012/3/10 7:03,3.8,1,3.9,16,5.2,2
2012/3/10 7:04,3.2,2,3.8,16,3.7,4
2012/3/10 7:05,3,2,3.1,16,6.3,16
2012/3/10 7:06,2.9,2,3,16,4.9,15
2012/3/10 7:07,2.7,2,2.8,16,5,13
2012/3/10 7:08,2.7,2,2.8,16,4.3,1
2012/3/10 7:09,2.8,2,2.8,1,6.2,15
2012/3/10 7:10,3.1,1,3.1,1,9.9,15
2012/3/10 7:11,3.1,1,3.2,1,7.6,1
2012/3/10 7:12,2.9,1,3.1,1,5.2,1
2012/3/10 7:13,2.9,1,2.9,1,4.8,16
2012/3/10 7:14,3,1,3,1,4.3,16
2012/3/10 7:15,3,16,3,1,4.9,16
2012/3/10 7:16,3.1,16,3.1,1,6.1,1
2012/3/10 7:17,3.3,16,3.3,16,5.4,16
2012/3/10 7:18,3.4,16,3.4,16,5.1,1
2012/3/10 7:19,3.3,1,3.4,16,3.7,3
2012/3/10 7:20,3,1,3.3,16,5,3
2012/3/10 7:21,2.9,1,3,16,3.5,3
2012/3/10 7:22,2.8,1,2.9,16,2.2,1
2012/3/10 7:23,2.7,1,2.8,16,4.3,2
2012/3/10 7:24,3,1,3,16,8.3,2
2012/3/10 7:25,3.1,1,3.1,16,5.6,1
2012/3/10 7:26,3,1,3.2,16,5.4,15
2012/3/10 7:27,2.9,1,2.9,16,8.1,16
2012/3/10 7:28,2.8,1,2.9,1,6.5,16
2012/3/10 7:29,2.9,1,2.9,1,6.4,16
2012/3/10 7:30,3.2,1,3.2,1,9.3,1
2012/3/10 7:31,3.6,1,3.6,1,9.2,2
2012/3/10 7:32,4.1,16,4.1,1,11.1,16
2012/3/10 7:33,4.2,16,4.2,1,4.7,15
2012/3/10 7:34,3.8,16,4.2,1,2.6,16
2012/3/10 7:35,3.7,1,3.8,1,6.1,2
2012/3/10 7:36,3.9,1,3.9,1,10.1,1
2012/3/10 7:37,3.9,1,4,1,5.2,2
2012/3/10 7:38,4.1,1,4.1,1,9.3,16
2012/3/10 7:39,4.4,1,4.4,1,9,16
2012/3/10 7:40,4.3,1,4.3,1,9.4,1
2012/3/10 7:41,4.3,16,4.4,1,9.2,16
2012/3/10 7:42,4,1,4.2,1,7.5,15
2012/3/10 7:43,4.2,1,4.2,1,9.2,14
2012/3/10 7:44,4.7,16,4.7,16,13.6,16
2012/3/10 7:45,5.1,16,5.2,16,13.4,16
2012/3/10 7:46,5.3,16,5.4,16,15.3,16
2012/3/10 7:47,5.6,16,5.6,16,13,16
2012/3/10 7:48,5.5,16,5.7,16,6.9,1
2012/3/10 7:49,5.7,16,5.7,16,13,16
2012/3/10 7:50,5.5,16,5.8,16,8.2,15
2012/3/10 7:51,5.1,16,5.5,16,6.3,15
2012/3/10 7:52,5,16,5.1,16,4.4,16
2012/3/10 7:53,4.8,16,5,16,3.3,14
2012/3/10 7:54,4.4,16,4.7,16,5.4,13
2012/3/10 7:55,4,16,4.3,16,7.9,1
2012/3/10 7:56,4.1,16,4.1,16,10.5,1
2012/3/10 7:57,3.8,16,4,16,8.6,1
2012/3/10 7:58,4,1,4,16,9.2,3
2012/3/10 7:59,3.4,1,4,16,4.4,2
2012/3/10 8:00,3.4,1,3.4,16,6.7,15
2012/3/10 8:01,3.9,1,3.9,16,15.4,16
2012/3/10 8:02,4.4,16,4.4,16,12.4,16
2012/3/10 8:03,4.7,1,4.7,16,12.2,1
2012/3/10 8:04,5.1,1,5.1,1,13.5,16
2012/3/10 8:05,5.3,1,5.3,1,9.8,1
2012/3/10 8:06,5.2,1,5.4,1,11.6,2
2012/3/10 8:07,5.6,1,5.6,1,12.8,16
2012/3/10 8:08,5.8,1,5.8,1,15.2,1
2012/3/10 8:09,6.8,16,6.8,16,16.7,16
2012/3/10 8:10,7,1,7,16,12.3,16
2012/3/10 8:11,7,1,7,16,13.8,16
2012/3/10 8:12,6.7,1,7,16,9.5,16
2012/3/10 8:13,6.8,1,6.9,16,10.6,1
2012/3/10 8:14,7,1,7.1,1,16.7,16
2012/3/10 8:15,7,1,7.1,1,12.4,2
2012/3/10 8:16,6.9,16,7,1,7.7,16
2012/3/10 8:17,6.5,16,6.9,1,7.1,1
2012/3/10 8:18,6.4,16,6.5,1,11.1,16
2012/3/10 8:19,5.6,16,6.3,1,8.1,16
2012/3/10 8:20,5.5,16,5.6,1,6.2,16
2012/3/10 8:21,4.9,16,5.4,1,3.8,16
2012/3/10 8:22,5,16,5,1,12.5,2
2012/3/10 8:23,5,16,5.1,1,13.1,16
2012/3/10 8:24,5,16,5,1,12.8,2
2012/3/10 8:25,4.9,16,5,1,9.4,1
2012/3/10 8:26,4.8,16,4.9,16,7.2,2
2012/3/10 8:27,5.3,16,5.3,16,11.1,1
2012/3/10 8:28,5.2,1,5.3,16,8.5,16
2012/3/10 8:29,5.6,16,5.6,16,13.1,16
2012/3/10 8:30,6.1,16,6.1,16,11.7,16
2012/3/10 8:31,6.4,16,6.4,16,10.2,14
2012/3/10 8:32,6.4,16,6.5,16,10.8,16
2012/3/10 8:33,6.6,16,6.6,16,11.6,1
2012/3/10 8:34,6,16,6.5,16,7.5,15
2012/3/10 8:35,5.9,16,6,16,7.9,1
2012/3/10 8:36,5.9,16,5.9,16,9.2,2
2012/3/10 8:37,5.8,1,5.9,16,11.4,2
2012/3/10 8:38,5.5,1,5.7,16,6.2,1
2012/3/10 8:39,5.1,1,5.5,16,7.5,2
2012/3/10 8:40,4.7,1,5.1,16,5.2,1
2012/3/10 8:41,4.5,1,4.7,16,4.9,1
2012/3/10 8:42,4.5,1,4.7,16,8.7,2
2012/3/10 8:43,4.1,1,4.5,16,6.3,1
2012/3/10 8:44,4.4,1,4.4,16,12.2,15
2012/3/10 8:45,4.7,1,4.8,16,11.5,16
2012/3/10 8:46,4.9,1,5,16,9.3,16
2012/3/10 8:47,4.7,1,4.9,1,8.1,15
2012/3/10 8:48,4.9,16,4.9,1,8.3,13
2012/3/10 8:49,4.8,16,4.9,1,6.9,1
2012/3/10 8:50,5,16,5,1,7,1
2012/3/10 8:51,4.9,16,5,1,6.7,15
2012/3/10 8:52,4.5,16,4.9,1,4.9,1
2012/3/10 8:53,4.5,16,4.5,1,6.5,2
2012/3/10 8:54,4.3,16,4.6,1,4.3,16
2012/3/10 8:55,3.8,16,4.2,1,3.2,16
2012/3/10 8:56,3.6,16,3.8,16,6.5,2
2012/3/10 8:57,3.4,1,3.5,16,6.1,16
2012/3/10 8:58,3.2,1,3.4,16,5.2,2
2012/3/10 8:59,3.1,1,3.3,16,6.5,16
2012/3/10 9:00,3,16,3.1,16,6.8,14
2012/3/10 9:01,3,16,3,16,6,15
2012/3/10 9:02,3.1,16,3.1,16,5.8,16
2012/3/10 9:03,2.9,16,3,16,2.5,1
2012/3/10 9:04,2.8,16,2.9,16,4.7,2
2012/3/10 9:05,2.8,16,2.9,16,4.4,4
2012/3/10 9:06,2.6,16,2.8,16,1.5,9
2012/3/10 9:07,2.3,16,2.5,1,1.4,8
2012/3/10 9:08,2,1,2.3,1,2.5,2
2012/3/10 9:09,1.8,1,2,1,4.2,2
2012/3/10 9:10,1.8,2,1.9,16,5,4
2012/3/10 9:11,1.6,2,1.8,16,4.2,15
2012/3/10 9:12,1.5,2,1.6,16,3.2,3
2012/3/10 9:13,1.5,2,1.5,16,1.8,3
2012/3/10 9:14,1.4,3,1.5,16,3.1,9
2012/3/10 9:15,1.4,4,1.4,16,3,7
2012/3/10 9:16,1.4,4,1.4,16,3.2,15
2012/3/10 9:17,1.6,2,1.6,16,5,15
2012/3/10 9:18,1.8,1,1.8,1,2.9,14
2012/3/10 9:19,1.6,1,1.7,1,0.8,1
2012/3/10 9:20,1.8,16,1.8,2,5.2,15
2012/3/10 9:21,2,15,2,15,7.6,15
2012/3/10 9:22,2.4,15,2.4,15,8.1,16
2012/3/10 9:23,2.8,15,2.8,15,7.8,15
2012/3/10 9:24,3,15,3,15,7,16
2012/3/10 9:25,3.2,15,3.2,15,5.2,2
2012/3/10 9:26,3.3,16,3.3,16,2.6,1
2012/3/10 9:27,3,16,3.2,16,1.1,15
2012/3/10 9:28,2.9,16,3,16,0.5,15
2012/3/10 9:29,2.9,16,2.9,16,1.8,7
2012/3/10 9:30,2.6,16,2.9,16,0.9,4
2012/3/10 9:31,2.3,16,2.6,16,3.1,15
2012/3/10 9:32,2,16,2.2,16,4.5,14
2012/3/10 9:33,1.7,16,1.9,16,4.7,15
2012/3/10 9:34,1.5,16,1.7,16,5,14
2012/3/10 9:35,1.5,15,1.6,16,6.9,13
2012/3/10 9:36,1.6,15,1.6,16,5,14
2012/3/10 9:37,1.8,14,1.8,16,5,14
2012/3/10 9:38,2,14,2,16,4.2,16
2012/3/10 9:39,2.1,14,2.1,16,2.9,13
2012/3/10 9:40,2.1,14,2.1,16,2.2,16
2012/3/10 9:41,2.3,14,2.3,14,5,2
2012/3/10 9:42,2.3,15,2.3,14,4.4,16
2012/3/10 9:43,2.2,15,2.3,14,2.4,16
2012/3/10 9:44,2.2,15,2.2,14,2.9,16
2012/3/10 9:45,1.9,15,2.1,14,2.5,16
2012/3/10 9:46,1.9,15,1.9,14,4.7,16
2012/3/10 9:47,1.9,16,2,14,3.8,15
2012/3/10 9:48,1.8,15,1.9,14,4.7,11
2012/3/10 9:49,2,15,2,14,6.4,14
2012/3/10 9:50,2.2,15,2.2,14,3.7,13
2012/3/10 9:51,2.3,14,2.3,14,3.7,11
2012/3/10 9:52,2.2,14,2.2,15,3.7,13
2012/3/10 9:53,2.3,13,2.3,14,2.6,12
2012/3/10 9:54,2.3,13,2.3,14,2.1,12
2012/3/10 9:55,2.4,13,2.4,13,3.3,15
2012/3/10 9:56,2.3,13,2.4,13,3.2,15
2012/3/10 9:57,2.3,13,2.3,13,3.2,14
2012/3/10 9:58,2.2,13,2.3,13,2.1,12
2012/3/10 9:59,2.1,13,2.2,13,3.1,14
2012/3/10 10:00,2,13,2.1,13,2.9,14
2012/3/10 10:01,1.8,13,2,13,2,13
2012/3/10 10:02,1.7,14,1.8,13,1,13
2012/3/10 10:03,1.5,14,1.7,13,0.8,15
2012/3/10 10:04,1.4,14,1.5,13,1.1,10
2012/3/10 10:05,1.3,14,1.3,13,2.4,15
2012/3/10 10:06,1.1,14,1.2,13,1.8,14
2012/3/10 10:07,1,14,1.1,13,1.6,14
2012/3/10 10:08,1.1,14,1.1,13,2.9,13
2012/3/10 10:09,1.2,13,1.2,13,3.9,14
2012/3/10 10:10,1.3,13,1.3,13,4.5,12
2012/3/10 10:11,1.4,13,1.4,13,4.4,10
2012/3/10 10:12,1.4,13,1.4,14,1.9,12
2012/3/10 10:13,1.5,13,1.5,14,2.5,11
2012/3/10 10:14,1.7,13,1.7,13,2.6,12
2012/3/10 10:15,1.7,13,1.7,13,2.1,13
2012/3/10 10:16,1.7,13,1.7,13,1.5,12
2012/3/10 10:17,1.6,13,1.6,13,0.5,12
2012/3/10 10:18,1.5,12,1.5,13,1.9,9
2012/3/10 10:19,1.3,12,1.5,13,2.4,9
2012/3/10 10:20,1.2,12,1.3,13,2.5,9
2012/3/10 10:21,1,12,1.2,13,1.1,10
2012/3/10 10:22,0.9,11,1,13,1.8,12
2012/3/10 10:23,0.8,11,0.9,13,1,8
2012/3/10 10:24,0.7,11,0.8,13,1.3,9
2012/3/10 10:25,0.7,11,0.7,13,2.1,1
2012/3/10 10:26,0.7,11,0.7,13,0.9,15
2012/3/10 10:27,0.7,10,0.7,13,1.5,9
2012/3/10 10:28,0.7,10,0.7,12,1.8,12
2012/3/10 10:29,0.7,11,0.7,12,1.3,12
2012/3/10 10:30,0.7,12,0.7,12,3,13
2012/3/10 10:31,0.7,12,0.7,11,1,13
2012/3/10 10:32,0.9,12,0.9,11,2.9,13
2012/3/10 10:33,1,13,1,12,3.5,12
2012/3/10 10:34,1.1,13,1.1,13,1.3,12
2012/3/10 10:35,1.1,13,1.1,13,2.1,16
2012/3/10 10:36,1.1,13,1.1,13,1.9,16
2012/3/10 10:37,1,14,1.1,13,0.3,15
2012/3/10 10:38,1,14,1,13,0.4,10
2012/3/10 10:39,1,14,1,13,2.6,9
2012/3/10 10:40,0.9,14,1,13,2.2,9
2012/3/10 10:41,1,14,1,13,2.5,16
2012/3/10 10:42,1,15,1.1,13,2.5,1
2012/3/10 10:43,1,16,1,13,3.1,16
2012/3/10 10:44,1.2,16,1.2,16,3.1,16
2012/3/10 10:45,1.4,16,1.4,16,5,16
2012/3/10 10:46,1.6,16,1.6,16,5.6,16
2012/3/10 10:47,1.7,16,1.7,16,2.7,15
2012/3/10 10:48,1.9,16,1.9,16,2.9,16
2012/3/10 10:49,2,16,2,16,4.7,15
2012/3/10 10:50,2.2,16,2.2,16,4.5,16
2012/3/10 10:51,2.2,16,2.2,16,3.5,13
2012/3/10 10:52,2.2,15,2.2,16,3.6,13
2012/3/10 10:53,2,15,2.2,16,1.5,12
2012/3/10 10:54,1.8,15,2,16,0.8,3
2012/3/10 10:55,1.6,15,1.8,16,1.3,16
2012/3/10 10:56,1.5,15,1.5,16,2.7,16
2012/3/10 10:57,1.6,15,1.6,16,3.6,1
2012/3/10 10:58,1.6,15,1.6,16,4.1,15
2012/3/10 10:59,1.6,15,1.6,16,4.1,14
2012/3/10 11:00,1.5,15,1.6,16,2.9,15
2012/3/10 11:01,1.5,15,1.5,16,4.8,15
2012/3/10 11:02,1.5,15,1.5,15,1.8,15
2012/3/10 11:03,1.5,16,1.5,15,1.1,1
2012/3/10 11:04,1.4,15,1.5,15,0.1,4
2012/3/10 11:05,1.4,15,1.4,15,1.1,3
2012/3/10 11:06,1.3,16,1.4,15,1,2
2012/3/10 11:07,1.2,16,1.3,15,1.3,5
2012/3/10 11:08,1,1,1.1,15,0.6,5
2012/3/10 11:09,0.7,1,1,15,0.1,5
2012/3/10 11:10,0.6,1,0.7,15,0.6,12
2012/3/10 11:11,0.5,1,0.6,15,2,16
2012/3/10 11:12,0.5,1,0.5,15,2.6,12
2012/3/10 11:13,0.6,1,0.6,16,3.8,15
2012/3/10 11:14,0.7,1,0.7,15,2,16
2012/3/10 11:15,0.7,16,0.8,16,2.1,9
2012/3/10 11:16,0.9,16,0.9,16,5.1,15
2012/3/10 11:17,1.1,15,1.1,16,4.4,16
2012/3/10 11:18,1.3,15,1.3,15,5.1,16
2012/3/10 11:19,1.5,15,1.5,15,4.3,1
2012/3/10 11:20,1.8,16,1.8,15,4.5,16
2012/3/10 11:21,2.2,16,2.2,16,9.4,15